User: anonymous   Login
Location: Bushey
(51.6333°N, 0.3667°W)
Time: 11:37:10
(UTC+00:00)
Language:

SL-08 R/B - Orbit

View from above orbital plane
View from above orbital plane
View from above satellite
View from above satellite

Ground track
Ground track

The orbit data is extracted from the following two-line orbital elements,

1 27819U 03023B   21137.83979972  .00000052  00000-0  38943-4 0  9991
2 27819  82.9508  47.0887 0047304  37.6770  25.6109 13.74250104900361
Epoch (UTC): 17 May 2021 20:09:18
Eccentricity: 0.0047304
inclination: 82.9508°
perigee height: 949 km
apogee height: 1019 km
right ascension of ascending node: 47.0887°
argument of perigee: 37.6770°
revolutions per day: 13.74250104
mean anomaly at epoch: 25.6109°
orbit number at epoch: 90036

The dashed part of the orbit path shows where the satellite is in the earth's shadow,  

DLR